Weather History for KPTT - May, 2013

Change the Weather History Date:

Sunday, May 12, 2013

  Actual Average (KP28) Record (KP28)
Temperature  
Mean Temperature 57 °F 66 °F  
Max Temperature 73 °F 78 °F 95 °F (1962)
Min Temperature 41 °F 54 °F 32 °F (1960)
Degree Days  
Heating Degree Days 8 3  
Month to date heating degree days 45  
Since 1 July heating degree days 4430  
Cooling Degree Days 0 3  
Month to date cooling degree days 28  
Year to date cooling degree days 52  
Growing Degree Days 7 (Base 50)    
Moisture  
Dew Point 40 °F    
Average Humidity 56    
Maximum Humidity 81    
Minimum Humidity 31    
Precipitation  
Precipitation 0.00 in 0.10 in 1.80 in (1972)
Month to date precipitation 1.16  
Year to date precipitation 7.60  
Snow  
Snow 0.00 in 0.00 in - ()
Month to date snowfall 0.0  
Since 1 July snowfall 8.5  
Snow Depth -    
Sea Level Pressure  
Sea Level Pressure 30.17 in    
Wind  
Wind Speed 8 mph (South)    
Max Wind Speed 22 mph    
Max Gust Speed 28 mph    
Visibility 10 miles    
Events      
T = Trace of Precipitation, MM = Missing Value Source: NWS Daily Summary

Daily Weather History Graph

Daily Weather History Graph

Search for Another Location

Airport or City:

Trip Planner

Search our weather history database for the weather conditions in past years. The results will help you decide how hot, cold, wet, or windy it might be!

Date:

Astronomy

May. 12, 2013 Rise Set
Actual Time 6:27 AM CDT 8:35 PM CDT
Civil Twilight 5:58 AM CDT 9:04 PM CDT
Nautical Twilight 5:22 AM CDT 9:40 PM CDT
Astronomical Twilight 4:44 AM CDT 10:19 PM CDT
Moon 8:24 AM CDT (5/12) 11:03 PM CDT (5/12)
Length of Visible Light 15h 06m
Length of Day
14h 07m
Waxing Crescent, 7% of the Moon is Illuminated
May 12
Waxing Crescent
May 17
First Quarter
May 24
Full
May 31
Last Quarter
Jun 8
New

Hourly Weather History & Observations

Time (CDT) Temp. Windchill Dew Point Humidity Pressure Visibility Wind Dir Wind Speed Gust Speed Precip Events Conditions
12:15 AM 46.4 °F 43.5 °F 37.4 °F 71% 30.29 in 10.0 mi SW 5.8 mph - N/A   Clear
12:35 AM 46.4 °F 44.3 °F 37.4 °F 71% 30.29 in 10.0 mi South 4.6 mph - N/A   Clear
12:55 AM 46.4 °F 44.3 °F 37.4 °F 71% 30.28 in 10.0 mi South 4.6 mph - N/A   Clear
1:35 AM 46.4 °F 44.3 °F 37.4 °F 71% 30.28 in 10.0 mi South 4.6 mph - N/A   Clear
1:55 AM 50.0 °F - 35.6 °F 58% 30.27 in 10.0 mi South 3.5 mph - N/A   Clear
2:35 AM 46.4 °F 44.3 °F 35.6 °F 66% 30.26 in 10.0 mi South 4.6 mph - N/A   Clear
2:55 AM 44.6 °F 42.2 °F 35.6 °F 71% 30.26 in 10.0 mi South 4.6 mph - N/A   Clear
3:15 AM 42.8 °F 40.1 °F 37.4 °F 81% 30.25 in 10.0 mi SSW 4.6 mph - N/A   Clear
3:35 AM 42.8 °F 40.1 °F 37.4 °F 81% 30.26 in 10.0 mi SW 4.6 mph - N/A   Clear
3:55 AM 42.8 °F 40.1 °F 35.6 °F 76% 30.25 in 10.0 mi SW 4.6 mph - N/A   Clear
4:15 AM 42.8 °F 39.3 °F 35.6 °F 76% 30.25 in 10.0 mi SW 5.8 mph - N/A   Clear
4:35 AM 41.0 °F 37.1 °F 35.6 °F 81% 30.25 in 10.0 mi WSW 5.8 mph - N/A   Clear
4:55 AM 41.0 °F 37.1 °F 35.6 °F 81% 30.25 in 10.0 mi SW 5.8 mph - N/A   Clear
5:15 AM 41.0 °F 37.1 °F 35.6 °F 81% 30.24 in 10.0 mi SW 5.8 mph - N/A   Clear
5:35 AM 41.0 °F 38.0 °F 35.6 °F 81% 30.24 in 10.0 mi SW 4.6 mph - N/A   Clear
5:55 AM 41.0 °F 36.4 °F 35.6 °F 81% 30.24 in 10.0 mi SW 6.9 mph - N/A   Clear
6:15 AM 41.0 °F 38.0 °F 35.6 °F 81% 30.25 in 10.0 mi SSW 4.6 mph - N/A   Clear
6:35 AM 41.0 °F 37.1 °F 35.6 °F 81% 30.25 in 10.0 mi SSW 5.8 mph - N/A   Clear
6:55 AM 42.8 °F 40.1 °F 37.4 °F 81% 30.25 in 10.0 mi SSW 4.6 mph - N/A   Clear
7:15 AM 42.8 °F 39.3 °F 37.4 °F 81% 30.25 in 10.0 mi SSW 5.8 mph - N/A   Clear
7:35 AM 44.6 °F 41.4 °F 39.2 °F 81% 30.25 in 10.0 mi SSW 5.8 mph - N/A   Clear
7:55 AM 46.4 °F 44.3 °F 41.0 °F 81% 30.26 in 10.0 mi SSW 4.6 mph - N/A   Clear
8:15 AM 50.0 °F - 41.0 °F 71% 30.26 in 10.0 mi South 5.8 mph - N/A   Scattered Clouds
8:35 AM 51.8 °F - 42.8 °F 71% 30.26 in 10.0 mi SSW 6.9 mph - N/A   Scattered Clouds
8:55 AM 51.8 °F - 42.8 °F 71% 30.26 in 10.0 mi South 6.9 mph - N/A   Scattered Clouds
9:15 AM 55.4 °F - 41.0 °F 58% 30.26 in 10.0 mi South 6.9 mph - N/A   Scattered Clouds
9:35 AM 55.4 °F - 39.2 °F 54% 30.24 in 10.0 mi South 10.4 mph - N/A   Scattered Clouds
9:55 AM 59.0 °F - 37.4 °F 45% 30.23 in 10.0 mi South 11.5 mph - N/A   Scattered Clouds
10:35 AM 60.8 °F - 37.4 °F 42% 30.23 in 10.0 mi SSE 11.5 mph - N/A   Clear
10:55 AM 60.8 °F - 37.4 °F 42% 30.23 in 10.0 mi SSE 13.8 mph - N/A   Clear
11:15 AM 60.8 °F - 35.6 °F 39% 30.23 in 10.0 mi SSE 16.1 mph - N/A   Clear
11:35 AM 62.6 °F - 35.6 °F 37% 30.21 in 10.0 mi SSE 15.0 mph - N/A   Clear
11:55 AM 62.6 °F - 35.6 °F 37% 30.20 in 10.0 mi SSE 16.1 mph 24.2 mph N/A   Clear
12:15 PM 62.6 °F - 37.4 °F 39% 30.19 in 10.0 mi South 17.3 mph 25.3 mph N/A   Clear
12:35 PM 64.4 °F - 37.4 °F 37% 30.19 in 10.0 mi South 17.3 mph 24.2 mph N/A   Clear
12:55 PM 66.2 °F - 41.0 °F 40% 30.18 in 10.0 mi South 21.9 mph 25.3 mph N/A   Clear
1:35 PM 68.0 °F - 42.8 °F 40% 30.19 in 10.0 mi SSE 13.8 mph 20.7 mph N/A   Clear
1:55 PM 68.0 °F - 42.8 °F 40% 30.17 in 10.0 mi South 13.8 mph 20.7 mph N/A   Clear
2:15 PM 69.8 °F - 42.8 °F 38% 30.16 in 10.0 mi South 16.1 mph 19.6 mph N/A   Clear
2:35 PM 69.8 °F - 42.8 °F 38% 30.16 in 10.0 mi SSE 12.7 mph 18.4 mph N/A   Clear
2:55 PM 71.6 °F - 42.8 °F 35% 30.15 in 10.0 mi SSE 12.7 mph 23.0 mph N/A   Clear
3:15 PM 71.6 °F - 42.8 °F 35% 30.13 in 10.0 mi SSE 16.1 mph 24.2 mph N/A   Clear
3:35 PM 71.6 °F - 42.8 °F 35% 30.12 in 10.0 mi SSE 20.7 mph 25.3 mph N/A   Clear
3:55 PM 71.6 °F - 42.8 °F 35% 30.11 in 10.0 mi SSE 16.1 mph 27.6 mph N/A   Clear
4:15 PM 71.6 °F - 42.8 °F 35% 30.10 in 10.0 mi SSE 18.4 mph 26.5 mph N/A   Clear
4:35 PM 73.4 °F - 42.8 °F 33% 30.09 in 10.0 mi SSE 16.1 mph 25.3 mph N/A   Clear
4:55 PM 73.4 °F - 42.8 °F 33% 30.07 in 10.0 mi South 18.4 mph 25.3 mph N/A   Clear
5:15 PM 73.4 °F - 42.8 °F 33% 30.08 in 10.0 mi SSE 17.3 mph 24.2 mph N/A   Clear
5:35 PM 71.6 °F - 41.0 °F 33% 30.08 in 10.0 mi SSE 13.8 mph 20.7 mph N/A   Scattered Clouds
5:55 PM 73.4 °F - 41.0 °F 31% 30.07 in 10.0 mi SSE 16.1 mph 23.0 mph N/A   Scattered Clouds
6:15 PM 73.4 °F - 41.0 °F 31% 30.06 in 10.0 mi SSE 18.4 mph 23.0 mph N/A   Clear
6:35 PM 71.6 °F - 42.8 °F 35% 30.06 in 10.0 mi SSE 17.3 mph 21.9 mph N/A   Clear
6:55 PM 71.6 °F - 42.8 °F 35% 30.05 in 10.0 mi SSE 13.8 mph - N/A   Clear
7:15 PM 71.6 °F - 44.6 °F 38% 30.05 in 10.0 mi SSE 13.8 mph - N/A   Clear
7:35 PM 69.8 °F - 44.6 °F 40% 30.04 in 10.0 mi SSE 12.7 mph 19.6 mph N/A   Clear
7:55 PM 69.8 °F - 44.6 °F 40% 30.05 in 10.0 mi SSE 10.4 mph - N/A   Clear
8:15 PM 68.0 °F - 44.6 °F 43% 30.05 in 10.0 mi SSE 10.4 mph - N/A   Clear
8:35 PM 66.2 °F - 44.6 °F 46% 30.05 in 10.0 mi SSE 9.2 mph - N/A   Clear
8:55 PM 64.4 °F - 46.4 °F 52% 30.06 in 10.0 mi SSE 11.5 mph - N/A   Clear
9:15 PM 62.6 °F - 46.4 °F 55% 30.07 in 10.0 mi SE 8.1 mph - N/A   Clear
9:35 PM 60.8 °F - 46.4 °F 59% 30.07 in 10.0 mi SE 6.9 mph - N/A   Clear
9:55 PM 59.0 °F - 46.4 °F 63% 30.08 in 10.0 mi SE 6.9 mph - N/A   Clear
10:15 PM 59.0 °F - 44.6 °F 59% 30.08 in 10.0 mi SE 6.9 mph - N/A   Clear
10:35 PM 57.2 °F - 44.6 °F 63% 30.08 in 10.0 mi SE 8.1 mph - N/A   Clear
10:55 PM 57.2 °F - 44.6 °F 63% 30.09 in 10.0 mi ESE 8.1 mph - N/A   Clear
11:15 PM 57.2 °F - 44.6 °F 63% 30.09 in 10.0 mi SE 8.1 mph - N/A   Clear
11:35 PM 57.2 °F - 44.6 °F 63% 30.09 in 10.0 mi SE 9.2 mph - N/A   Clear
11:55 PM 55.4 °F - 44.6 °F 67% 30.09 in 10.0 mi SE 8.1 mph - N/A   Clear